• Join FlightAware (Why Join?)
  • Login
  • US Flag 
08:33PM EDT


 

Airport Tracker/Info


-or-


 

Live Flight TrackerFlight Track Log ✈ LXJ342 ✈ 25-Aug-2013 ✈ KTUS - KSAN

Flight Track Log - Related Links

Times and Time Zones

All times are in EDT time to prevent confusion due to time zone crossing. See the LXJ342 flight status page for this flight to view local times or setup timezone preferences in your user account.

Time Position Orientation Groundspeed Altitude Reporting Facility
EDT Latitude Longitude Course Direction KTS MPH feet Rate Location/Type
02:24PM 32.1064 -110.9289 132° Southeast 173 199 3,200  Level Albuquerque Center
02:25PM 32.0747 -110.8872 132° Southeast 212 244 5,400 2,760 Climbing Albuquerque Center
02:26PM 32.0386 -110.8653 153° Southeast 223 257 7,500 2,580 Climbing Albuquerque Center
02:27PM 32.0283 -110.9394 261° West 269 310 10,000 2,220 Climbing Albuquerque Center
02:28PM 32.0800 -111.0256 305° West 311 358 12,100 2,220 Climbing Albuquerque Center
02:29PM 32.1356 -111.1267 303° West 356 410 14,600 2,400 Climbing Albuquerque Center
02:30PM 32.1911 -111.2328 302° West 377 434 17,100 2,280 Climbing Albuquerque Center
02:31PM 32.2506 -111.3414 303° West 388 447 19,300 1,980 Climbing Albuquerque Center
02:32PM 32.3111 -111.4531 303° West 399 459 21,200 1,920 Climbing Albuquerque Center
02:33PM 32.3856 -111.5925 302° West 412 474 23,300 1,740 Climbing Albuquerque Center
02:34PM 32.4489 -111.7108 302° West 422 486 24,800 1,320 Climbing Albuquerque Center
02:35PM 32.5142 -111.8319 303° West 431 496 26,100 1,200 Climbing Albuquerque Center
02:36PM 32.5803 -111.9569 302° West 441 507 27,400 1,440 Climbing Albuquerque Center
02:37PM 32.6464 -112.0817 302° West 446 513 29,100 1,500 Climbing Albuquerque Center
02:38PM 32.7100 -112.2025 302° West 438 504 30,500 1,200 Climbing Albuquerque Center
02:39PM 32.7764 -112.3289 302° West 435 501 31,600 1,020 Climbing Albuquerque Center
02:40PM 32.8400 -112.4492 302° West 434 499 32,700 960 Climbing Albuquerque Center
02:41PM 32.8622 -112.6131 279° West 429 494 33,600 600 Climbing Albuquerque Center
02:42PM 32.8572 -112.7503 268° West 422 486 34,000 120 Climbing Albuquerque Center
02:43PM 32.8522 -112.8911 268° West 425 489 33,900  Descending Albuquerque Center
02:44PM 32.8461 -113.0311 267° West 428 493 34,000  Climbing Albuquerque Center
02:45PM 32.8408 -113.1667 267° West 420 483 34,000  Level Albuquerque Center
02:46PM 32.8328 -113.3292 267° West 415 478 34,000  Level Albuquerque Center
02:47PM 32.8272 -113.4650 267° West 414 476 34,000  Level Albuquerque Center
02:48PM 32.8208 -113.6019 267° West 417 480 34,000  Level Albuquerque Center
02:49PM 32.8117 -113.7383 265° West 416 479 34,000  Level Albuquerque Center
02:50PM 32.7908 -113.8722 260° West 413 475 34,000  Level Albuquerque Center
02:51PM 32.7744 -114.0081 262° West 416 479 34,000  Level Albuquerque Center
02:52PM 32.7742 -114.1475 270° West 421 484 34,000  Level Albuquerque Center
02:53PM 32.7728 -114.3144 269° West 423 487 34,000  Level Albuquerque Center
02:54PM 32.7717 -114.4533 269° West 422 486 34,000 -60 Level Albuquerque Center
02:56PM 32.7683 -114.6306 269° West 425 489 33,900 -720 Descending Los Angeles Center
02:57PM 32.7661 -114.7731 269° West 429 494 32,300 -1,740 Descending Los Angeles Center
02:58PM 32.8042 -114.9433 285° West 444 511 30,300 -1,680 Descending Los Angeles Center
02:59PM 32.8372 -115.0842 286° West 445 512 28,900 -1,560 Descending Los Angeles Center
03:00PM 32.8550 -115.2292 278° West 444 511 27,100 -1,620 Descending Los Angeles Center
03:01PM 32.8839 -115.3667 284° West 430 495 25,600 -1,500 Descending Los Angeles Center
03:02PM 32.9172 -115.5039 286° West 430 495 24,100 -1,860 Descending Los Angeles Center
03:03PM 32.9514 -115.6628 284° West 414 476 21,800 -1,800 Descending Los Angeles Center
03:04PM 32.9122 -115.8097 252° West 396 456 20,100 -1,500 Descending Los Angeles Center
03:05PM 32.8742 -115.9353 250° West 402 463 18,500 -1,560 Descending Los Angeles Center
03:06PM 32.8364 -116.0572 250° West 397 457 16,900 -1,500 Descending Los Angeles Center
03:07PM 32.7989 -116.1778 250° West 389 448 15,400 -1,500 Descending Los Angeles Center
03:08PM 32.7647 -116.2972 251° West 382 440 13,800 -1,620 Descending Los Angeles Center
03:10PM 32.7481 -116.4092 260° West 343 395 12,100 -1,500 Descending Los Angeles Center
03:11PM 32.7178 -116.5031 249° West 307 353 10,700 -1,320 Descending Los Angeles Center
03:12PM 32.6881 -116.6028 251° West 279 321 9,400 -1,380 Descending Los Angeles Center
03:13PM 32.6831 -116.6944 266° West 280 322 7,900 -1,440 Descending Los Angeles Center
03:14PM 32.6781 -116.7786 266° West 264 304 6,500 -1,200 Descending Los Angeles Center
03:15PM 32.6747 -116.8561 267° West 246 283 5,500 -1,200 Descending Los Angeles Center
03:16PM 32.6717 -116.9300 267° West 232 267 4,100 -1,320 Descending Los Angeles Center
03:17PM 32.6861 -116.9931 285° West 208 239 2,800 -1,080 Descending Los Angeles Center
03:18PM 32.7008 -117.0575 285° West 179 206 1,900 -720 Descending Los Angeles Center
03:19PM 32.7136 -117.1103 286° West 170 196 1,400 -660 Descending Los Angeles Center
03:20PM 32.7244 -117.1522 287° West 144 166 600 -660 Descending Los Angeles Center
03:21PM 32.7336 -117.1883 287° West 133 153 100 -540 Descending Los Angeles Center
03:23PM 32.7333 -117.1833 281° West  Level FlightAware Approximate
03:30PM 32.7336 -117.1897 281° West  Level Estimated